FLOCK 3K-1 (43894 NORAD) Tracking and Keplerian Element Data

This shows tracking and keplerian element data for the satellite.

Feedback or suggestion? Click here.




ElementValue
Catalog43894
NameFLOCK 3K-1
Epoch Orbit316
Epoch Day16.83836833
Epoch Year2019
RAAN286.1701
Inclination97.2995
Eccentricity0.0024666
Argument of Perigee171.7482
Mean Anonmoly188.4166
Mean Motion15.23430698
Decay Rate5.55E-06
L11 43894U 18111U 19016.83836833 .00000555 00000-0 26071-4 0 9994
L22 43894 97.2995 286.1701 0024666 171.7482 188.4166 15.23430698 3165

Live tracking and technical data element details for FLOCK 3K-1 (NORAD 43894). FLOCK 3K-1 can be tracked NOW for your location showing map with azimuth and elevation plus other details from your city location.

Track the satellite on the map from your city or location and see movement details for azimuth, elevation, latitude, longitude, range, height, and movement on the map or in text.







IsCatalogInMostPopularTable: catalog: 43894, numindb: 18
Update: records affected: 1



GetName: 43894 FLOCK 3K-1

Hit Count: updated at: Thu, 17 Jan 2019 14:40:32 GMT